EW2642 Weather Reports


Display with metric or nautical units.
time (UTC)temp
F
wind
direction
speed
MPH
gust
MPH
rain 1hr
in
rain 24hr
in
rain mn
in
humidity
%
barometer
mb
20260508094506 48 280 4.0 7.0 0.00 0.00 0.00 45 1018.5
20260508093011 49 292 3.0 7.0 0.00 0.00 0.00 45 1018.4
20260508091508 49 289 2.0 7.0 0.00 0.00 0.00 45 1018.4
20260508090007 49 306 4.0 9.0 0.00 0.00 0.00 45 1018.3
20260508084504 50 319 0.0 4.0 0.00 0.00 0.00 44 1018.3
20260508083008 50 262 2.0 5.0 0.00 0.00 0.00 44 1018.3
20260508081532 50 308 2.0 4.0 0.00 0.00 0.00 43 1018.3
20260508080028 51 311 1.0 4.0 0.00 0.00 0.00 42 1018.3
20260508074532 51 352 1.0 3.0 0.00 0.00 0.00 42 1018.3
20260508073028 52 27 1.0 2.0 0.00 0.00 0.00 42 1018.1
20260508071529 51 107 1.0 4.0 0.00 0.00 0.00 42 1018.1
20260508070027 52 70 2.0 3.0 0.00 0.00 0.00 42 1018.1
20260508064530 54 55 0.0 3.0 0.00 0.00 0.00 39 1018.0
20260508063028 54 229 0.0 3.0 0.00 0.00 0.00 38 1017.9
20260508061532 56 241 0.0 2.0 0.00 0.00 0.00 36 1017.8
20260508060028 57 241 0.0 3.0 0.00 0.00 0.00 35 1017.6
20260508054534 55 239 2.0 4.0 0.00 0.00 0.00 38 1017.6
20260508053034 55 220 1.0 3.0 0.00 0.00 0.00 39 1017.5
20260508051528 57 214 2.0 4.0 0.00 0.00 0.00 37 1017.3
20260508050025 60 321 2.0 10.0 0.00 0.00 0.00 32 1017.2
20260508044526 62 310 5.0 11.0 0.00 0.00 0.00 30 1017.2
20260508043027 62 281 7.0 12.0 0.00 0.00 0.00 30 1017.2
20260508041526 63 313 5.0 9.0 0.00 0.00 0.00 29 1016.9
20260508040028 64 323 4.0 12.0 0.00 0.00 0.00 28 1016.7
20260508034538 64 294 7.0 12.0 0.00 0.00 0.00 28 1016.4
20260508033025 64 278 7.0 13.0 0.00 0.00 0.00 29 1016.3
20260508031534 65 284 6.0 11.0 0.00 0.00 0.00 28 1016.1
20260508030027 66 294 5.0 9.0 0.00 0.00 0.00 27 1016.0
20260508024555 67 290 5.0 10.0 0.00 0.00 0.00 26 1015.8
20260508023028 68 315 7.0 12.0 0.00 0.00 0.00 24 1015.7
20260508021508 69 296 7.0 12.0 0.00 0.00 0.00 24 1015.6
20260508020027 70 309 7.0 12.0 0.00 0.00 0.00 22 1015.5
20260508014506 71 291 6.0 14.0 0.00 0.00 0.00 21 1015.5
20260508013035 72 306 8.0 13.0 0.00 0.00 0.00 20 1015.5
20260508011532 71 304 6.0 13.0 0.00 0.00 0.00 21 1015.5
20260508010030 72 321 4.0 11.0 0.00 0.00 0.00 21 1015.5
20260508004511 72 300 9.0 16.0 0.00 0.00 0.00 20 1015.5
20260508003026 74 300 9.0 16.0 0.00 0.00 0.00 19 1015.5
20260508001514 74 295 11.0 17.0 0.00 0.00 0.00 19 1015.5
20260508000006 75 323 10.0 19.0 0.00 0.00 0.00 18 1015.3
20260507234534 75 333 10.0 18.0 0.00 0.00 0.00 18 1015.2
20260507233005 76 5 8.0 15.0 0.00 0.00 0.00 18 1015.3
20260507231507 76 198 5.0 13.0 0.00 0.00 0.00 17 1015.5
20260507230027 76 238 7.0 18.0 0.00 0.00 0.00 17 1015.6
20260507224533 75 336 8.0 17.0 0.00 0.00 0.00 17 1015.9
20260507223027 75 290 5.0 14.0 0.00 0.00 0.00 18 1016.0
20260507221540 74 313 8.0 13.0 0.00 0.00 0.00 19 1016.3
20260507220027 72 262 9.0 15.0 0.00 0.00 0.00 20 1016.6
20260507214535 73 284 5.0 14.0 0.00 0.00 0.00 21 1016.8
20260507213030 72 277 7.0 14.0 0.00 0.00 0.00 23 1017.0
20260507211527 72 296 10.0 16.0 0.00 0.00 0.00 21 1017.2
20260507210038 71 291 10.0 18.0 0.00 0.00 0.00 21 1017.2
20260507204528 72 248 11.0 18.0 0.00 0.00 0.00 21 1017.4
20260507203039 71 267 8.0 18.0 0.00 0.00 0.00 21 1017.7
20260507201531 71 275 9.0 17.0 0.00 0.00 0.00 21 1017.7
20260507200028 71 260 12.0 17.0 0.00 0.00 0.00 20 1017.8
20260507194529 70 252 8.0 21.0 0.00 0.00 0.00 20 1017.9
20260507193027 69 240 10.0 17.0 0.00 0.00 0.00 19 1018.0
20260507191535 69 258 11.0 19.0 0.00 0.00 0.00 23 1018.0
20260507190031 69 236 10.0 16.0 0.00 0.00 0.00 25 1018.2
20260507184532 68 277 10.0 15.0 0.00 0.00 0.00 25 1018.3
20260507183034 66 267 8.0 13.0 0.00 0.00 0.00 30 1018.4
20260507181527 66 255 8.0 13.0 0.00 0.00 0.00 32 1018.6
20260507180028 66 224 5.0 16.0 0.00 0.00 0.00 34 1018.6
20260507174535 64 241 5.0 14.0 0.00 0.00 0.00 34 1018.7
20260507173039 64 249 11.0 16.0 0.00 0.00 0.00 34 1018.9
20260507171522 62 269 6.0 15.0 0.00 0.00 0.00 35 1018.8
20260507170006 63 277 8.0 14.0 0.00 0.00 0.00 35 1018.9
20260507164518 61 262 9.0 13.0 0.00 0.00 0.00 45 1019.0
20260507163006 58 262 6.0 11.0 0.00 0.00 0.00 49 1019.2
20260507161508 56 297 6.0 11.0 0.00 0.00 0.00 54 1019.3
20260507160018 56 266 7.0 11.0 0.00 0.00 0.00 55 1019.3
20260507154506 54 255 6.0 11.0 0.00 0.00 0.00 58 1019.3
20260507153017 54 267 9.0 12.0 0.00 0.00 0.00 56 1019.3
20260507151518 54 278 8.0 13.0 0.00 0.00 0.00 57 1019.3
20260507150032 53 288 7.0 12.0 0.00 0.00 0.00 59 1019.5
20260507144506 51 241 5.0 9.0 0.00 0.00 0.00 62 1019.4
20260507143008 50 248 4.0 7.0 0.00 0.00 0.00 65 1019.4
20260507141508 47 277 2.0 4.0 0.00 0.00 0.00 70 1019.5
20260507140023 44 173 0.0 2.0 0.00 0.00 0.00 73 1019.4
20260507134505 44 171 1.0 3.0 0.00 0.00 0.00 71 1019.3
20260507133030 43 296 3.0 6.0 0.00 0.00 0.00 73 1019.2
20260507131522 42 277 1.0 3.0 0.00 0.00 0.00 74 1019.2
20260507130023 43 279 2.0 6.0 0.00 0.00 0.00 72 1019.3
20260507124528 43 288 2.0 4.0 0.00 0.00 0.00 73 1019.2
20260507123034 42 281 2.0 5.0 0.00 0.00 0.00 71 1019.2
20260507121527 46 270 3.0 8.0 0.00 0.00 0.00 66 1019.2
20260507120028 46 306 5.0 9.0 0.00 0.00 0.00 66 1019.1
20260507114526 46 304 6.0 10.0 0.00 0.00 0.00 67 1019.1
20260507113027 45 286 3.0 6.0 0.00 0.00 0.00 68 1019.2
20260507111524 44 275 3.0 6.0 0.00 0.00 0.00 68 1019.4
20260507110036 44 261 2.0 6.0 0.00 0.00 0.00 67 1019.4
20260507104529 45 272 3.0 7.0 0.00 0.00 0.00 65 1019.4
20260507103031 46 263 4.0 8.0 0.00 0.00 0.00 63 1019.4
20260507101533 47 296 5.0 8.0 0.00 0.00 0.00 62 1019.4
20260507100027 47 279 3.0 6.0 0.00 0.00 0.00 62 1019.5